| time (UTC) | temp F | wind direction | speed MPH | gust MPH | rain 1hr in | rain 24hr in | rain mn in | humidity % | barometer mb |
| 20260904204525 | 59 | 259 | 5.0 | 10.0 | 0.00 | 0.12 | 0.12 | 74 | 1019.0 |
| 20260904203543 | 59 | 257 | 5.0 | 8.0 | 0.00 | 0.12 | 0.12 | 73 | 1019.0 |
| 20260904202521 | 59 | 262 | 5.0 | 9.0 | 0.00 | 0.12 | 0.12 | 73 | 1019.1 |
| 20260904201519 | 60 | 262 | 5.0 | 8.0 | 0.00 | 0.12 | 0.12 | 73 | 1018.9 |
| 20260904200517 | 60 | 263 | 6.0 | 9.0 | 0.00 | 0.12 | 0.12 | 72 | 1018.7 |
| 20260904195535 | 60 | 262 | 6.0 | 9.0 | 0.00 | 0.12 | 0.12 | 71 | 1018.5 |
| 20260904194553 | 61 | 260 | 6.0 | 9.0 | 0.00 | 0.12 | 0.12 | 70 | 1018.5 |
| 20260904193552 | 61 | 265 | 6.0 | 11.0 | 0.00 | 0.12 | 0.12 | 69 | 1018.4 |
| 20260904192530 | 62 | 269 | 5.0 | 11.0 | 0.00 | 0.12 | 0.12 | 68 | 1018.2 |
| 20260904191608 | 62 | 264 | 6.0 | 12.0 | 0.00 | 0.12 | 0.12 | 67 | 1017.9 |
| 20260904190526 | 62 | 267 | 7.0 | 13.0 | 0.00 | 0.12 | 0.12 | 65 | 1017.9 |
| 20260904185544 | 63 | 272 | 7.0 | 10.0 | 0.00 | 0.12 | 0.12 | 64 | 1017.7 |
| 20260904184603 | 63 | 277 | 6.0 | 11.0 | 0.00 | 0.12 | 0.12 | 64 | 1017.5 |
| 20260904183521 | 63 | 277 | 7.0 | 12.0 | 0.00 | 0.12 | 0.12 | 64 | 1017.5 |
| 20260904182519 | 63 | 280 | 6.0 | 12.0 | 0.00 | 0.12 | 0.12 | 63 | 1017.4 |
| 20260904181517 | 63 | 276 | 6.0 | 10.0 | 0.00 | 0.12 | 0.12 | 62 | 1017.4 |
| 20260904180556 | 64 | 276 | 7.0 | 13.0 | 0.00 | 0.12 | 0.12 | 60 | 1017.4 |
| 20260904175533 | 64 | 271 | 6.0 | 13.0 | 0.00 | 0.12 | 0.12 | 59 | 1017.1 |
| 20260904174552 | 64 | 282 | 8.0 | 16.0 | 0.00 | 0.12 | 0.12 | 59 | 1017.0 |
| 20260904173530 | 65 | 276 | 9.0 | 16.0 | 0.00 | 0.12 | 0.12 | 59 | 1017.1 |
| 20260904172528 | 64 | 284 | 8.0 | 16.0 | 0.00 | 0.12 | 0.12 | 60 | 1017.1 |
| 20260904171526 | 64 | 279 | 8.0 | 16.0 | 0.00 | 0.12 | 0.12 | 60 | 1016.9 |
| 20260904170544 | 64 | 285 | 7.0 | 13.0 | 0.00 | 0.12 | 0.12 | 60 | 1017.0 |
| 20260904165602 | 64 | 274 | 8.0 | 13.0 | 0.00 | 0.12 | 0.12 | 60 | 1016.7 |
| 20260904164701 | 64 | 274 | 6.0 | 12.0 | 0.00 | 0.12 | 0.12 | 60 | 1016.6 |
| 20260904163519 | 64 | 286 | 6.0 | 11.0 | 0.00 | 0.12 | 0.12 | 59 | 1016.4 |
| 20260904162517 | 64 | 279 | 7.0 | 14.0 | 0.00 | 0.12 | 0.12 | 58 | 1016.4 |
| 20260904161535 | 65 | 284 | 7.0 | 14.0 | 0.00 | 0.12 | 0.12 | 58 | 1016.3 |
| 20260904160534 | 65 | 287 | 6.0 | 15.0 | 0.00 | 0.12 | 0.12 | 58 | 1016.3 |
| 20260904155532 | 66 | 285 | 7.0 | 15.0 | 0.00 | 0.12 | 0.12 | 58 | 1016.3 |
| 20260904154530 | 66 | 280 | 7.0 | 15.0 | 0.00 | 0.12 | 0.12 | 58 | 1016.3 |
| 20260904153528 | 66 | 287 | 6.0 | 16.0 | 0.00 | 0.12 | 0.12 | 58 | 1016.2 |
| 20260904152526 | 66 | 276 | 8.0 | 14.0 | 0.00 | 0.12 | 0.12 | 58 | 1016.2 |
| 20260904151524 | 66 | 284 | 6.0 | 14.0 | 0.00 | 0.12 | 0.12 | 58 | 1016.2 |
| 20260904150522 | 66 | 275 | 9.0 | 16.0 | 0.00 | 0.12 | 0.12 | 58 | 1016.2 |
| 20260904145521 | 66 | 270 | 7.0 | 15.0 | 0.00 | 0.12 | 0.12 | 58 | 1016.1 |
| 20260904144519 | 66 | 273 | 7.0 | 13.0 | 0.00 | 0.12 | 0.12 | 58 | 1015.9 |
| 20260904143517 | 66 | 272 | 9.0 | 21.0 | 0.00 | 0.12 | 0.12 | 58 | 1015.8 |
| 20260904142535 | 66 | 280 | 8.0 | 18.0 | 0.00 | 0.12 | 0.12 | 57 | 1015.7 |
| 20260904141533 | 66 | 274 | 9.0 | 17.0 | 0.00 | 0.12 | 0.12 | 57 | 1015.6 |
| 20260904140532 | 66 | 272 | 9.0 | 15.0 | 0.00 | 0.12 | 0.12 | 57 | 1015.6 |
| 20260904135530 | 66 | 276 | 7.0 | 13.0 | 0.00 | 0.12 | 0.12 | 57 | 1015.5 |
| 20260904134528 | 66 | 277 | 7.0 | 13.0 | 0.00 | 0.12 | 0.12 | 56 | 1015.5 |
| 20260904133546 | 66 | 274 | 9.0 | 17.0 | 0.00 | 0.12 | 0.12 | 56 | 1015.5 |
| 20260904132524 | 65 | 276 | 7.0 | 14.0 | 0.00 | 0.12 | 0.12 | 56 | 1015.6 |
| 20260904131542 | 65 | 279 | 8.0 | 18.0 | 0.00 | 0.12 | 0.12 | 57 | 1015.7 |
| 20260904130521 | 65 | 276 | 11.0 | 19.0 | 0.00 | 0.12 | 0.12 | 57 | 1015.6 |
| 20260904125519 | 65 | 280 | 9.0 | 16.0 | 0.00 | 0.12 | 0.12 | 60 | 1015.4 |
| 20260904124517 | 65 | 279 | 7.0 | 14.0 | 0.00 | 0.12 | 0.12 | 59 | 1015.3 |
| 20260904123535 | 65 | 286 | 6.0 | 13.0 | 0.00 | 0.12 | 0.12 | 60 | 1015.0 |
| 20260904122533 | 64 | 277 | 9.0 | 17.0 | 0.00 | 0.12 | 0.12 | 59 | 1015.0 |
| 20260904121532 | 65 | 282 | 10.0 | 19.0 | 0.00 | 0.12 | 0.12 | 60 | 1014.8 |
| 20260904120550 | 65 | 294 | 7.0 | 13.0 | 0.00 | 0.12 | 0.12 | 61 | 1014.7 |
| 20260904115608 | 64 | 279 | 6.0 | 16.0 | 0.00 | 0.12 | 0.12 | 62 | 1014.6 |
| 20260904114548 | 64 | 278 | 8.0 | 15.0 | 0.00 | 0.12 | 0.12 | 63 | 1014.5 |
| 20260904113524 | 64 | 283 | 7.0 | 16.0 | 0.00 | 0.12 | 0.12 | 64 | 1014.5 |
| 20260904112523 | 64 | 289 | 7.0 | 14.0 | 0.00 | 0.12 | 0.12 | 65 | 1014.6 |
| 20260904111541 | 64 | 294 | 5.0 | 12.0 | 0.00 | 0.12 | 0.12 | 69 | 1014.6 |
| 20260904110539 | 63 | 278 | 7.0 | 14.0 | 0.00 | 0.12 | 0.12 | 69 | 1014.4 |
| 20260904105537 | 62 | 286 | 4.0 | 9.0 | 0.00 | 0.12 | 0.12 | 76 | 1014.1 |
| 20260904104535 | 62 | 284 | 5.0 | 10.0 | 0.01 | 0.12 | 0.12 | 78 | 1013.9 |
| 20260904103533 | 62 | 276 | 5.0 | 13.0 | 0.02 | 0.12 | 0.12 | 80 | 1013.9 |
| 20260904102532 | 62 | 280 | 7.0 | 13.0 | 0.02 | 0.12 | 0.12 | 83 | 1013.9 |
| 20260904101530 | 61 | 281 | 7.0 | 11.0 | 0.02 | 0.12 | 0.12 | 88 | 1013.8 |
| 20260904100528 | 60 | 278 | 5.0 | 8.0 | 0.02 | 0.12 | 0.12 | 90 | 1013.8 |
| 20260904095526 | 60 | 282 | 7.0 | 12.0 | 0.02 | 0.12 | 0.12 | 89 | 1013.8 |
| 20260904094524 | 62 | 313 | 3.0 | 9.0 | 0.01 | 0.11 | 0.11 | 88 | 1013.8 |
| 20260904093522 | 62 | 287 | 6.0 | 11.0 | 0.00 | 0.10 | 0.10 | 86 | 1013.6 |
| 20260904092521 | 62 | 282 | 6.0 | 12.0 | 0.00 | 0.10 | 0.10 | 87 | 1013.2 |
| 20260904091539 | 62 | 285 | 5.0 | 10.0 | 0.00 | 0.10 | 0.10 | 87 | 1013.2 |
| 20260904090517 | 62 | 275 | 6.0 | 10.0 | 0.00 | 0.10 | 0.10 | 89 | 1012.9 |
| 20260904085535 | 62 | 257 | 6.0 | 11.0 | 0.01 | 0.10 | 0.10 | 90 | 1012.7 |
| 20260904084553 | 62 | 274 | 7.0 | 10.0 | 0.01 | 0.10 | 0.10 | 91 | 1012.7 |
| 20260904083531 | 62 | 272 | 6.0 | 10.0 | 0.02 | 0.10 | 0.10 | 92 | 1012.7 |
| 20260904082530 | 62 | 274 | 6.0 | 9.0 | 0.02 | 0.10 | 0.10 | 93 | 1012.8 |
| 20260904081528 | 62 | 275 | 5.0 | 9.0 | 0.02 | 0.10 | 0.10 | 93 | 1012.6 |
| 20260904080526 | 62 | 280 | 5.0 | 8.0 | 0.03 | 0.10 | 0.10 | 94 | 1012.5 |
| 20260904075524 | 62 | 279 | 7.0 | 11.0 | 0.03 | 0.09 | 0.09 | 93 | 1012.6 |
| 20260904074523 | 62 | 278 | 6.0 | 10.0 | 0.03 | 0.09 | 0.09 | 93 | 1012.4 |
| 20260904073520 | 62 | 280 | 6.0 | 10.0 | 0.02 | 0.08 | 0.08 | 94 | 1012.1 |
| 20260904072519 | 62 | 279 | 6.0 | 16.0 | 0.02 | 0.08 | 0.08 | 94 | 1012.0 |
| 20260904071517 | 62 | 283 | 6.0 | 10.0 | 0.02 | 0.08 | 0.08 | 94 | 1011.7 |
| 20260904070535 | 62 | 277 | 7.0 | 13.0 | 0.01 | 0.07 | 0.07 | 94 | 1011.8 |
| 20260904065533 | 62 | 279 | 7.0 | 13.0 | 0.01 | 0.06 | 0.06 | 95 | 1011.6 |
| 20260904064532 | 63 | 272 | 5.0 | 8.0 | 0.01 | 0.06 | 0.06 | 94 | 1011.4 |
| 20260904063530 | 63 | 277 | 4.0 | 8.0 | 0.01 | 0.06 | 0.06 | 93 | 1011.4 |
| 20260904062528 | 63 | 276 | 7.0 | 11.0 | 0.01 | 0.06 | 0.06 | 93 | 1011.3 |
| 20260904061546 | 63 | 282 | 5.0 | 9.0 | 0.06 | 0.06 | 0.06 | 92 | 1011.2 |
| 20260904060524 | 63 | 271 | 7.0 | 11.0 | 0.06 | 0.06 | 0.06 | 91 | 1011.0 |
| 20260904055523 | 63 | 276 | 7.0 | 11.0 | 0.06 | 0.06 | 0.06 | 92 | 1010.8 |
| 20260904054521 | 63 | 291 | 8.0 | 15.0 | 0.06 | 0.06 | 0.06 | 90 | 1010.8 |
| 20260904053539 | 64 | 281 | 8.0 | 16.0 | 0.05 | 0.05 | 0.05 | 93 | 1010.6 |
| 20260904052517 | 66 | 282 | 10.0 | 18.0 | 0.05 | 0.05 | 0.05 | 94 | 1010.2 |
| 20260904051535 | 67 | 255 | 13.0 | 23.0 | 0.00 | 0.00 | 0.00 | 91 | 1009.5 |
| 20260904050533 | 67 | 251 | 14.0 | 23.0 | 0.00 | 0.00 | 0.00 | 90 | 1009.5 |
| 20260904045531 | 67 | 259 | 14.0 | 23.0 | 0.00 | 0.00 | 0.00 | 91 | 1009.3 |
| 20260904044530 | 67 | 253 | 15.0 | 26.0 | 0.00 | 0.00 | 0.00 | 91 | 1009.5 |
| 20260904043528 | 67 | 251 | 15.0 | 27.0 | 0.00 | 0.00 | 0.00 | 91 | 1009.4 |
| 20260904042526 | 67 | 260 | 16.0 | 26.0 | 0.00 | 0.00 | 0.00 | 90 | 1009.6 |
| 20260904041524 | 67 | 258 | 15.0 | 30.0 | 0.00 | 0.00 | 0.00 | 90 | 1009.6 |
| 20260904040522 | 67 | 252 | 17.0 | 31.0 | 0.00 | 0.00 | 0.00 | 90 | 1009.6 |
| 20260904035521 | 67 | 256 | 14.0 | 27.0 | 0.00 | 0.00 | 0.00 | 90 | 1009.7 |
| 20260904034519 | 67 | 257 | 17.0 | 26.0 | 0.00 | 0.00 | 0.00 | 91 | 1009.8 |
| 20260904033517 | 67 | 250 | 11.0 | 18.0 | 0.00 | 0.00 | 0.00 | 91 | 1009.9 |
| 20260904032535 | 68 | 265 | 14.0 | 22.0 | 0.00 | 0.00 | 0.00 | 88 | 1010.1 |
| 20260904031533 | 69 | 258 | 14.0 | 27.0 | 0.00 | 0.00 | 0.00 | 85 | 1010.1 |
| 20260904030551 | 69 | 258 | 16.0 | 29.0 | 0.00 | 0.00 | 0.00 | 85 | 1010.0 |
| 20260904025530 | 68 | 261 | 18.0 | 33.0 | 0.00 | 0.00 | 0.00 | 85 | 1010.0 |
| 20260904024548 | 68 | 257 | 13.0 | 24.0 | 0.00 | 0.00 | 0.00 | 85 | 1010.2 |
| 20260904023526 | 68 | 264 | 16.0 | 27.0 | 0.00 | 0.00 | 0.00 | 85 | 1010.3 |
| 20260904022524 | 68 | 261 | 13.0 | 22.0 | 0.00 | 0.00 | 0.00 | 85 | 1010.5 |
| 20260904021522 | 68 | 255 | 13.0 | 27.0 | 0.00 | 0.00 | 0.00 | 86 | 1010.6 |
| 20260904020521 | 68 | 258 | 12.0 | 20.0 | 0.00 | 0.00 | 0.00 | 86 | 1010.8 |
| 20260904015519 | 67 | 259 | 11.0 | 22.0 | 0.00 | 0.00 | 0.00 | 88 | 1010.8 |
| 20260904014517 | 67 | 257 | 13.0 | 21.0 | 0.00 | 0.00 | 0.00 | 88 | 1011.2 |
| 20260904013535 | 67 | 258 | 12.0 | 21.0 | 0.00 | 0.00 | 0.00 | 88 | 1011.2 |
| 20260904012533 | 67 | 262 | 11.0 | 18.0 | 0.00 | 0.00 | 0.00 | 88 | 1011.3 |
| 20260904011531 | 66 | 265 | 11.0 | 18.0 | 0.00 | 0.00 | 0.00 | 87 | 1011.3 |
| 20260904010550 | 66 | 258 | 12.0 | 19.0 | 0.00 | 0.00 | 0.00 | 87 | 1011.6 |
| 20260904005528 | 66 | 264 | 12.0 | 21.0 | 0.00 | 0.00 | 0.00 | 87 | 1011.7 |
| 20260904004526 | 67 | 263 | 10.0 | 16.0 | 0.00 | 0.00 | 0.00 | 84 | 1011.8 |
| 20260904003544 | 67 | 257 | 10.0 | 17.0 | 0.00 | 0.00 | 0.00 | 82 | 1011.9 |
| 20260904002522 | 68 | 262 | 12.0 | 21.0 | 0.00 | 0.00 | 0.00 | 80 | 1011.8 |
| 20260904001521 | 68 | 266 | 10.0 | 20.0 | 0.00 | 0.00 | 0.00 | 79 | 1011.9 |
| 20260904000519 | 67 | 261 | 11.0 | 20.0 | 0.00 | 0.00 | 0.00 | 80 | 1012.1 |
| 20260903235517 | 67 | 267 | 10.0 | 17.0 | 0.00 | 0.00 | 0.00 | 81 | 1012.1 |
| 20260903234535 | 67 | 260 | 11.0 | 18.0 | 0.00 | 0.00 | 0.00 | 81 | 1012.4 |
| 20260903233533 | 67 | 269 | 8.0 | 19.0 | 0.00 | 0.00 | 0.00 | 81 | 1012.3 |
| 20260903232532 | 67 | 265 | 8.0 | 16.0 | 0.00 | 0.00 | 0.00 | 81 | 1012.8 |
| 20260903231529 | 66 | 259 | 8.0 | 17.0 | 0.00 | 0.00 | 0.00 | 83 | 1013.0 |
| 20260903230528 | 66 | 248 | 6.0 | 16.0 | 0.00 | 0.00 | 0.00 | 84 | 1013.1 |
| 20260903225526 | 66 | 266 | 8.0 | 13.0 | 0.00 | 0.00 | 0.00 | 85 | 1013.3 |
| 20260903224524 | 65 | 266 | 8.0 | 14.0 | 0.00 | 0.00 | 0.00 | 88 | 1013.4 |
| 20260903223522 | 66 | 263 | 11.0 | 18.0 | 0.00 | 0.00 | 0.00 | 87 | 1013.6 |
| 20260903222521 | 66 | 261 | 11.0 | 21.0 | 0.00 | 0.00 | 0.00 | 85 | 1013.9 |
| 20260903221519 | 66 | 260 | 11.0 | 24.0 | 0.00 | 0.00 | 0.00 | 84 | 1014.0 |
| 20260903220517 | 66 | 260 | 8.0 | 16.0 | 0.00 | 0.00 | 0.00 | 84 | 1014.3 |
| 20260903215535 | 66 | 263 | 10.0 | 16.0 | 0.00 | 0.00 | 0.00 | 83 | 1014.3 |
| 20260903214533 | 66 | 260 | 9.0 | 15.0 | 0.00 | 0.00 | 0.00 | 83 | 1014.6 |
| 20260903213531 | 66 | 252 | 11.0 | 21.0 | 0.00 | 0.00 | 0.00 | 82 | 1014.8 |
| 20260903212530 | 65 | 260 | 13.0 | 21.0 | 0.00 | 0.00 | 0.00 | 82 | 1014.9 |
| 20260903211528 | 65 | 255 | 12.0 | 18.0 | 0.00 | 0.00 | 0.00 | 81 | 1015.0 |
| 20260903210526 | 65 | 256 | 12.0 | 20.0 | 0.00 | 0.00 | 0.00 | 81 | 1015.1 |
| 20260903205524 | 65 | 261 | 11.0 | 20.0 | 0.00 | 0.00 | 0.00 | 81 | 1015.1 |